GIA433 WADL-WIII

Flight info

Callsign GIA433
Flight time N/A
Altitude 36000
Route DULOS T20 OKANG T4 FARIZ T6 KURUS
Aircraft B738/M-SDE2E3FGHIRWXY/LB1

Departure

Time 2026-04-23 02:40
Airport Lombok International Airport (WADL)

Arrival

Time N/A
Airport Soekarno-Hatta International Airport (WIII)
Time Latitude Longitude Altitude Speed Heading
2026-04-23 02:24 -8.76124 116.27443 333 ft 0 kts 218°
2026-04-23 02:31 -8.76117 116.27449 328 ft 2 kts 217°
2026-04-23 02:31 -8.76104 116.27459 329 ft 2 kts 219°
2026-04-23 02:32 -8.76091 116.27470 330 ft 2 kts 220°
2026-04-23 02:32 -8.76078 116.27480 328 ft 2 kts 222°
2026-04-23 02:32 -8.76066 116.27492 328 ft 2 kts 229°
2026-04-23 02:32 -8.76058 116.27506 328 ft 2 kts 283°
2026-04-23 02:33 -8.76062 116.27515 328 ft 0 kts 308°
2026-04-23 02:34 -8.76062 116.27514 328 ft 1 kts 308°
2026-04-23 02:35 -8.76040 116.27487 330 ft 12 kts 309°
2026-04-23 02:35 -8.75976 116.27407 330 ft 15 kts 308°
2026-04-23 02:35 -8.75911 116.27325 332 ft 15 kts 313°
2026-04-23 02:35 -8.75851 116.27324 330 ft 8 kts 34°
2026-04-23 02:36 -8.75815 116.27345 331 ft 0 kts
2026-04-23 02:36 -8.75801 116.27340 331 ft 6 kts 335°
2026-04-23 02:36 -8.75752 116.27287 330 ft 15 kts 309°
2026-04-23 02:36 -8.75671 116.27186 332 ft 22 kts 309°
2026-04-23 02:37 -8.75560 116.27047 330 ft 28 kts 309°
2026-04-23 02:37 -8.75445 116.26904 332 ft 25 kts 309°
2026-04-23 02:37 -8.75340 116.26772 329 ft 23 kts 309°
2026-04-23 02:37 -8.75244 116.26653 328 ft 19 kts 309°
2026-04-23 02:38 -8.75162 116.26550 329 ft 18 kts 308°
2026-04-23 02:38 -8.75067 116.26476 328 ft 18 kts
2026-04-23 02:38 -8.74965 116.26553 322 ft 11 kts 54°
2026-04-23 02:38 -8.74973 116.26596 320 ft 1 kts 128°
2026-04-23 02:39 -8.74980 116.26604 321 ft 7 kts 130°
2026-04-23 02:39 -8.75162 116.26831 324 ft 79 kts 129°
2026-04-23 02:39 -8.75658 116.27447 332 ft 144 kts 129°
2026-04-23 02:39 -8.76360 116.28316 777 ft 163 kts 128°
2026-04-23 02:40 -8.77079 116.29211 1574 ft 165 kts 129°
2026-04-23 02:40 -8.77821 116.30129 2279 ft 176 kts 128°
2026-04-23 02:40 -8.78665 116.31186 2605 ft 210 kts 128°
2026-04-23 02:40 -8.79645 116.32406 2882 ft 234 kts 128°
2026-04-23 02:41 -8.80719 116.33743 3199 ft 257 kts 128°
2026-04-23 02:41 -8.81876 116.35178 3852 ft 267 kts 128°
2026-04-23 02:41 -8.83048 116.36631 4848 ft 267 kts 128°
2026-04-23 02:41 -8.84231 116.38098 5691 ft 272 kts 128°
2026-04-23 02:42 -8.85373 116.39638 6511 ft 275 kts 116°
2026-04-23 02:42 -8.85828 116.41085 7128 ft 276 kts 95°
2026-04-23 02:42 -8.85644 116.43017 7904 ft 280 kts 71°
2026-04-23 02:42 -8.84713 116.44744 8713 ft 282 kts 52°
2026-04-23 02:43 -8.83468 116.46296 9531 ft 286 kts 50°
2026-04-23 02:43 -8.82190 116.47852 10281 ft 291 kts 50°
2026-04-23 02:43 -8.80856 116.49493 10552 ft 314 kts 50°
2026-04-23 02:43 -8.79198 116.51047 10705 ft 338 kts 31°
2026-04-23 02:44 -8.76966 116.51856 10966 ft 356 kts
2026-04-23 02:44 -8.74486 116.51578 11512 ft 365 kts 341°
2026-04-23 02:44 -8.72218 116.50407 12225 ft 368 kts 331°
2026-04-23 02:44 -8.69988 116.49105 12871 ft 371 kts 332°
2026-04-23 02:45 -8.67724 116.47812 13486 ft 375 kts 332°
2026-04-23 02:45 -8.65476 116.46445 14042 ft 381 kts 323°
2026-04-23 02:45 -8.63621 116.44515 14604 ft 385 kts 311°
2026-04-23 02:45 -8.61916 116.42421 15178 ft 387 kts 310°
2026-04-23 02:46 -8.60209 116.40300 15710 ft 391 kts 310°
2026-04-23 02:46 -8.58476 116.38160 16240 ft 394 kts 311°
2026-04-23 02:46 -8.56725 116.36018 16771 ft 397 kts 311°
2026-04-23 02:46 -8.54950 116.33862 17286 ft 400 kts 311°
2026-04-23 02:47 -8.53163 116.31700 17800 ft 403 kts 311°
2026-04-23 02:47 -8.51354 116.29518 18268 ft 406 kts 311°
2026-04-23 02:47 -8.49558 116.27351 18684 ft 409 kts 311°
2026-04-23 02:47 -8.47702 116.25114 19101 ft 412 kts 311°
2026-04-23 02:48 -8.45881 116.22917 19504 ft 415 kts 311°
2026-04-23 02:48 -8.43990 116.20700 19900 ft 417 kts 314°
2026-04-23 02:48 -8.41915 116.18645 20322 ft 419 kts 318°
2026-04-23 02:48 -8.39747 116.16674 20730 ft 421 kts 319°
2026-04-23 02:49 -8.37550 116.14700 21117 ft 424 kts 319°
2026-04-23 02:49 -8.35358 116.12698 21486 ft 427 kts 319°
2026-04-23 02:49 -8.33167 116.10657 21855 ft 429 kts 318°
2026-04-23 02:49 -8.30972 116.08595 22235 ft 432 kts 318°
2026-04-23 02:50 -8.28771 116.06522 22592 ft 434 kts 318°
2026-04-23 02:50 -8.26556 116.04439 22951 ft 436 kts 318°
2026-04-23 02:50 -8.24329 116.02347 23317 ft 438 kts 318°
2026-04-23 02:50 -8.22090 116.00243 23622 ft 441 kts 318°
2026-04-23 02:51 -8.19840 115.98129 23886 ft 443 kts 318°
2026-04-23 02:51 -8.17574 115.96001 24172 ft 445 kts 318°
2026-04-23 02:51 -8.15307 115.93862 24456 ft 447 kts 316°
2026-04-23 02:51 -8.13433 115.91404 24685 ft 451 kts 300°
2026-04-23 02:52 -8.12319 115.88439 24949 ft 455 kts 284°
2026-04-23 02:52 -8.11655 115.85313 25234 ft 456 kts 282°
2026-04-23 02:52 -8.11239 115.83181 25406 ft 458 kts 282°
2026-04-23 02:52 -8.10444 115.78990 25735 ft 461 kts 282°
2026-04-23 02:53 -8.10041 115.76880 25907 ft 462 kts 282°
2026-04-23 02:53 -8.09422 115.73691 26157 ft 464 kts 282°
2026-04-23 02:53 -8.08788 115.70497 26405 ft 465 kts 282°
2026-04-23 02:53 -8.08141 115.67292 26647 ft 467 kts 282°
2026-04-23 02:54 -8.07485 115.64073 26898 ft 468 kts 282°
2026-04-23 02:54 -8.06824 115.60847 27139 ft 470 kts 282°
2026-04-23 02:54 -8.06159 115.57613 27376 ft 472 kts 282°
2026-04-23 02:54 -8.05492 115.54367 27602 ft 473 kts 282°
2026-04-23 02:55 -8.04822 115.51110 27825 ft 475 kts 282°
2026-04-23 02:55 -8.04150 115.47840 28048 ft 476 kts 282°
2026-04-23 02:55 -8.03476 115.44562 28256 ft 478 kts 282°
2026-04-23 02:55 -8.02802 115.41277 28462 ft 480 kts 282°
2026-04-23 02:56 -8.02131 115.38017 28673 ft 481 kts 282°
2026-04-23 02:56 -8.01451 115.34709 28856 ft 483 kts 282°
2026-04-23 02:56 -8.00768 115.31387 29049 ft 484 kts 282°
2026-04-23 02:56 -8.00083 115.28057 29240 ft 486 kts 282°
2026-04-23 02:57 -7.99395 115.24715 29431 ft 487 kts 282°
2026-04-23 02:57 -7.98705 115.21366 29602 ft 489 kts 282°
2026-04-23 02:57 -7.98012 115.18005 29792 ft 490 kts 282°
2026-04-23 02:57 -7.97319 115.14643 30042 ft 489 kts 282°
2026-04-23 02:58 -7.96627 115.11287 30304 ft 488 kts 282°
2026-04-23 02:58 -7.95937 115.07943 30558 ft 486 kts 282°
2026-04-23 02:58 -7.95249 115.04606 30782 ft 486 kts 282°
2026-04-23 02:58 -7.94559 115.01267 31006 ft 486 kts 282°
2026-04-23 02:59 -7.93870 114.97933 31254 ft 485 kts 282°
2026-04-23 02:59 -7.93182 114.94603 31519 ft 484 kts 282°
2026-04-23 02:59 -7.92494 114.91276 31766 ft 484 kts 282°
2026-04-23 02:59 -7.91808 114.87957 32013 ft 483 kts 282°
2026-04-23 03:00 -7.91121 114.84639 32269 ft 483 kts 282°
2026-04-23 03:00 -7.90435 114.81327 32535 ft 482 kts 282°
2026-04-23 03:00 -7.89751 114.78022 32798 ft 481 kts 282°
2026-04-23 03:00 -7.89067 114.74719 33062 ft 481 kts 282°
2026-04-23 03:01 -7.88383 114.71420 33320 ft 480 kts 282°
2026-04-23 03:01 -7.87700 114.68126 33608 ft 480 kts 282°
2026-04-23 03:01 -7.87016 114.64831 33876 ft 479 kts 282°
2026-04-23 03:01 -7.86335 114.61550 34114 ft 479 kts 282°
2026-04-23 03:02 -7.85654 114.58267 34357 ft 478 kts 282°
2026-04-23 03:02 -7.84973 114.54992 34595 ft 477 kts 282°
2026-04-23 03:02 -7.84293 114.51717 34833 ft 476 kts 282°
2026-04-23 03:02 -7.83622 114.48491 35071 ft 476 kts 282°
2026-04-23 03:03 -7.82935 114.45186 35312 ft 475 kts 282°
2026-04-23 03:03 -7.82258 114.41930 35556 ft 474 kts 282°
2026-04-23 03:03 -7.81588 114.38713 35796 ft 474 kts 282°
2026-04-23 03:03 -7.80913 114.35470 35928 ft 473 kts 282°
2026-04-23 03:04 -7.80234 114.32210 35921 ft 476 kts 282°
2026-04-23 03:04 -7.78874 114.25680 35919 ft 475 kts 282°
2026-04-23 03:05 -7.77519 114.19182 35926 ft 472 kts 282°
2026-04-23 03:05 -7.76170 114.12718 35925 ft 470 kts 282°
2026-04-23 03:06 -7.74063 114.06517 35921 ft 467 kts 298°
2026-04-23 03:06 -7.70587 114.01008 35920 ft 466 kts 304°
2026-04-23 03:07 -7.66967 113.95591 35923 ft 466 kts 304°
2026-04-23 03:07 -7.63372 113.90156 35919 ft 467 kts 304°
2026-04-23 03:08 -7.59794 113.84685 35916 ft 468 kts 304°
2026-04-23 03:08 -7.56234 113.79220 35913 ft 470 kts 304°
2026-04-23 03:09 -7.52646 113.73713 35907 ft 471 kts 304°
2026-04-23 03:09 -7.49046 113.68190 35912 ft 472 kts 304°
2026-04-23 03:10 -7.45438 113.62660 35908 ft 473 kts 304°
2026-04-23 03:10 -7.41820 113.57117 35901 ft 473 kts 304°
2026-04-23 03:11 -7.38201 113.51574 35900 ft 473 kts 304°
2026-04-23 03:11 -7.34581 113.46031 35902 ft 473 kts 304°
2026-04-23 03:12 -7.30964 113.40494 35900 ft 473 kts 304°
2026-04-23 03:12 -7.27350 113.34966 35900 ft 472 kts 304°
2026-04-23 03:13 -7.23740 113.29444 35900 ft 471 kts 304°
2026-04-23 03:13 -7.20159 113.23969 35901 ft 471 kts 304°
2026-04-23 03:14 -7.16557 113.18463 35897 ft 470 kts 304°
2026-04-23 03:14 -7.12955 113.12960 35895 ft 470 kts 304°
2026-04-23 03:15 -7.09356 113.07462 35894 ft 470 kts 304°
2026-04-23 03:15 -7.05752 113.01960 35898 ft 471 kts 304°
2026-04-23 03:16 -7.02145 112.96454 35894 ft 471 kts 304°
2026-04-23 03:16 -6.96732 112.88195 35893 ft 471 kts 304°
2026-04-23 03:17 -6.93117 112.82682 35900 ft 472 kts 304°
2026-04-23 03:17 -6.89505 112.77174 35897 ft 472 kts 304°
2026-04-23 03:18 -6.85905 112.71689 35899 ft 472 kts 304°
2026-04-23 03:18 -6.82288 112.66177 35895 ft 472 kts 304°
2026-04-23 03:19 -6.78669 112.60664 35895 ft 472 kts 304°
2026-04-23 03:19 -6.75047 112.55150 35896 ft 472 kts 304°
2026-04-23 03:20 -6.71427 112.49639 35896 ft 472 kts 304°
2026-04-23 03:20 -6.67810 112.44135 35897 ft 471 kts 304°
2026-04-23 03:21 -6.64190 112.38629 35892 ft 471 kts 304°
2026-04-23 03:21 -6.60573 112.33127 35892 ft 471 kts 304°
2026-04-23 03:22 -6.56979 112.27664 35893 ft 471 kts 304°
2026-04-23 03:22 -6.53367 112.22174 35893 ft 471 kts 304°
2026-04-23 03:23 -6.49751 112.16680 35894 ft 471 kts 305°
2026-04-23 03:23 -6.46136 112.11189 35894 ft 471 kts 304°
2026-04-23 03:24 -6.42522 112.05702 35894 ft 471 kts 304°
2026-04-23 03:24 -6.38905 112.00211 35893 ft 470 kts 304°
2026-04-23 03:25 -6.35288 111.94722 35894 ft 470 kts 304°
2026-04-23 03:25 -6.31674 111.89237 35893 ft 470 kts 304°
2026-04-23 03:26 -6.28058 111.83752 35894 ft 470 kts 305°
2026-04-23 03:26 -6.24447 111.78279 35894 ft 470 kts 305°
2026-04-23 03:27 -6.20858 111.72843 35893 ft 470 kts 304°
2026-04-23 03:27 -6.17244 111.67371 35894 ft 470 kts 304°
2026-04-23 03:28 -6.13634 111.61903 35894 ft 469 kts 304°
2026-04-23 03:28 -6.10023 111.56436 35892 ft 469 kts 304°
2026-04-23 03:29 -6.06412 111.50970 35892 ft 469 kts 304°
2026-04-23 03:29 -6.02807 111.45515 35892 ft 469 kts 304°
2026-04-23 03:30 -5.99198 111.40055 35893 ft 468 kts 304°
2026-04-23 03:30 -5.95596 111.34607 35891 ft 468 kts 304°
2026-04-23 03:31 -5.91988 111.29150 35893 ft 468 kts 304°
2026-04-23 03:31 -5.88670 111.23537 35883 ft 469 kts 291°
2026-04-23 03:32 -5.87818 111.20374 35900 ft 470 kts 279°
2026-04-23 03:32 -5.87618 111.17134 35890 ft 472 kts 266°
2026-04-23 03:32 -5.88356 111.10547 35898 ft 472 kts 263°
2026-04-23 03:33 -5.89180 111.04046 35891 ft 473 kts 264°
2026-04-23 03:33 -5.89953 110.97484 35893 ft 473 kts 264°
2026-04-23 03:34 -5.90688 110.90912 35893 ft 474 kts 264°
2026-04-23 03:34 -5.91414 110.84338 35894 ft 474 kts 264°
2026-04-23 03:35 -5.92142 110.77754 35893 ft 474 kts 264°
2026-04-23 03:35 -5.92872 110.71171 35892 ft 474 kts 264°
2026-04-23 03:36 -5.93601 110.64590 35896 ft 474 kts 264°
2026-04-23 03:36 -5.94329 110.58004 35895 ft 474 kts 264°
2026-04-23 03:37 -5.95056 110.51428 35893 ft 474 kts 264°
2026-04-23 03:37 -5.95782 110.44850 35893 ft 473 kts 264°
2026-04-23 03:38 -5.96495 110.38281 35894 ft 473 kts 266°
2026-04-23 03:38 -5.96659 110.31685 35899 ft 472 kts 271°
2026-04-23 03:39 -5.96579 110.25095 35892 ft 472 kts 271°
2026-04-23 03:39 -5.96522 110.19613 35894 ft 472 kts 271°
2026-04-23 03:40 -5.96495 110.11949 35890 ft 472 kts 270°
2026-04-23 03:40 -5.96494 110.05357 35891 ft 472 kts 270°
2026-04-23 03:41 -5.96494 109.99825 35890 ft 473 kts 270°
2026-04-23 03:41 -5.96493 109.93262 35891 ft 473 kts 270°
2026-04-23 03:42 -5.96489 109.86642 35890 ft 473 kts 270°
2026-04-23 03:42 -5.96484 109.80025 35886 ft 474 kts 270°
2026-04-23 03:43 -5.96477 109.72323 35889 ft 474 kts 270°
2026-04-23 03:43 -5.96472 109.66768 35887 ft 474 kts 270°
2026-04-23 03:44 -5.96465 109.60177 35889 ft 474 kts 270°
2026-04-23 03:44 -5.96457 109.53548 35887 ft 474 kts 270°
2026-04-23 03:45 -5.96448 109.46927 35887 ft 474 kts 270°
2026-04-23 03:45 -5.96439 109.40311 35887 ft 473 kts 270°
2026-04-23 03:46 -5.96428 109.33705 35888 ft 473 kts 270°
2026-04-23 03:46 -5.96417 109.27101 35888 ft 472 kts 270°
2026-04-23 03:47 -5.96405 109.20551 35886 ft 471 kts 270°
2026-04-23 03:47 -5.96393 109.13970 35880 ft 471 kts 270°
2026-04-23 03:48 -5.96379 109.07391 35885 ft 470 kts 270°
2026-04-23 03:48 -5.96365 109.00826 35882 ft 470 kts 270°
2026-04-23 03:49 -5.96350 108.94256 35886 ft 470 kts 270°
2026-04-23 03:49 -5.96335 108.87688 35885 ft 470 kts 270°
2026-04-23 03:50 -5.96318 108.81114 35888 ft 470 kts 270°
2026-04-23 03:50 -5.96301 108.74537 35889 ft 470 kts 270°
2026-04-23 03:51 -5.96283 108.68010 35886 ft 471 kts 270°
2026-04-23 03:51 -5.96264 108.61435 35885 ft 471 kts 270°
2026-04-23 03:52 -5.96244 108.54858 35885 ft 471 kts 270°
2026-04-23 03:52 -5.96224 108.48280 35884 ft 471 kts 270°
2026-04-23 03:53 -5.96213 108.41699 35887 ft 471 kts 270°
2026-04-23 03:53 -5.96210 108.35124 35888 ft 471 kts 270°
2026-04-23 03:54 -5.96206 108.28542 35888 ft 471 kts 270°
2026-04-23 03:54 -5.96199 108.21965 35888 ft 470 kts 270°
2026-04-23 03:55 -5.96191 108.15549 35866 ft 444 kts 270°
2026-04-23 03:55 -5.96187 108.12531 35812 ft 432 kts 270°
2026-04-23 03:55 -5.96183 108.09504 35587 ft 424 kts 270°
2026-04-23 03:56 -5.96179 108.06587 35165 ft 423 kts 270°
2026-04-23 03:56 -5.96174 108.03601 34262 ft 434 kts 270°
2026-04-23 03:56 -5.96169 108.00513 33027 ft 450 kts 270°
2026-04-23 03:56 -5.96165 107.97302 31569 ft 469 kts 270°
2026-04-23 03:57 -5.96163 107.94002 30255 ft 476 kts 270°
2026-04-23 03:57 -5.96165 107.90681 29488 ft 472 kts 270°
2026-04-23 03:57 -5.96167 107.87401 28822 ft 468 kts 270°
2026-04-23 03:57 -5.96169 107.84154 28244 ft 462 kts 270°
2026-04-23 03:58 -5.96169 107.80945 27674 ft 457 kts 270°
2026-04-23 03:58 -5.96169 107.77771 27124 ft 452 kts 270°
2026-04-23 03:58 -5.96169 107.74624 26580 ft 447 kts 270°
2026-04-23 03:58 -5.96169 107.71521 26048 ft 443 kts 270°
2026-04-23 03:59 -5.96168 107.68438 25518 ft 439 kts 270°
2026-04-23 03:59 -5.96167 107.65381 24969 ft 436 kts 270°
2026-04-23 03:59 -5.96167 107.62342 24429 ft 433 kts 270°
2026-04-23 03:59 -5.96168 107.59368 23907 ft 431 kts 270°
2026-04-23 04:00 -5.96169 107.56362 23358 ft 429 kts 270°
2026-04-23 04:00 -5.96169 107.53376 22761 ft 426 kts 270°
2026-04-23 04:00 -5.96170 107.50419 22219 ft 422 kts 270°
2026-04-23 04:00 -5.96169 107.47486 21694 ft 417 kts 270°
2026-04-23 04:01 -5.96169 107.44587 21178 ft 413 kts 270°
2026-04-23 04:01 -5.96169 107.41714 20680 ft 409 kts 270°
2026-04-23 04:01 -5.96168 107.38869 20185 ft 406 kts 270°
2026-04-23 04:01 -5.96168 107.36051 19688 ft 402 kts 270°
2026-04-23 04:02 -5.96167 107.33250 19190 ft 399 kts 270°
2026-04-23 04:02 -5.96166 107.30462 18694 ft 396 kts 270°
2026-04-23 04:02 -5.96163 107.27702 18199 ft 393 kts 270°
2026-04-23 04:02 -5.96159 107.25364 17742 ft 391 kts 270°
2026-04-23 04:03 -5.96155 107.23146 17333 ft 388 kts 270°
2026-04-23 04:03 -5.96150 107.20452 16859 ft 383 kts 270°
2026-04-23 04:03 -5.96145 107.17788 16388 ft 378 kts 270°
2026-04-23 04:03 -5.96141 107.15192 15923 ft 365 kts 270°
2026-04-23 04:04 -5.96137 107.12680 15475 ft 353 kts 270°
2026-04-23 04:04 -5.96132 107.10246 15062 ft 344 kts 270°
2026-04-23 04:04 -5.96128 107.07869 14653 ft 338 kts 270°
2026-04-23 04:04 -5.96123 107.05527 14253 ft 333 kts 270°
2026-04-23 04:05 -5.96119 107.03196 13844 ft 335 kts 270°
2026-04-23 04:05 -5.96113 107.00846 13440 ft 337 kts 270°
2026-04-23 04:05 -5.96107 106.98486 13041 ft 336 kts 270°
2026-04-23 04:05 -5.96102 106.96151 12661 ft 333 kts 270°
2026-04-23 04:06 -5.96096 106.93839 12285 ft 330 kts 270°
2026-04-23 04:06 -5.96090 106.91545 11913 ft 327 kts 270°
2026-04-23 04:06 -5.96084 106.89274 11639 ft 323 kts 270°
2026-04-23 04:06 -5.96078 106.87045 11311 ft 326 kts 270°
2026-04-23 04:07 -5.96072 106.84757 10962 ft 327 kts 270°
2026-04-23 04:07 -5.96066 106.82544 10612 ft 325 kts 270°
2026-04-23 04:07 -5.96060 106.80264 10240 ft 322 kts 270°
2026-04-23 04:07 -5.96313 106.78071 9885 ft 321 kts 252°
2026-04-23 04:08 -5.97113 106.76036 9921 ft 304 kts 248°
2026-04-23 04:08 -5.97915 106.74116 9866 ft 292 kts 248°
2026-04-23 04:08 -5.98686 106.72268 9744 ft 283 kts 248°
2026-04-23 04:08 -5.99437 106.70450 9487 ft 281 kts 248°
2026-04-23 04:09 -6.00179 106.68638 9147 ft 281 kts 248°
2026-04-23 04:09 -6.00917 106.66826 8837 ft 280 kts 248°
2026-04-23 04:09 -6.01651 106.65019 8533 ft 279 kts 248°
2026-04-23 04:09 -6.02371 106.63242 8247 ft 278 kts 248°
2026-04-23 04:10 -6.03091 106.61463 8109 ft 270 kts 249°
2026-04-23 04:10 -6.03788 106.59742 7999 ft 263 kts 249°
2026-04-23 04:10 -6.04469 106.58060 7851 ft 257 kts 249°
2026-04-23 04:10 -6.05135 106.56411 7662 ft 253 kts 249°
2026-04-23 04:11 -6.05795 106.54777 7409 ft 253 kts 249°
2026-04-23 04:11 -6.06456 106.53137 7157 ft 252 kts 249°
2026-04-23 04:11 -6.07115 106.51505 6905 ft 252 kts 249°
2026-04-23 04:11 -6.07773 106.49877 6676 ft 251 kts 249°
2026-04-23 04:12 -6.08428 106.48253 6453 ft 251 kts 249°
2026-04-23 04:12 -6.09083 106.46630 6268 ft 249 kts 249°
2026-04-23 04:12 -6.09722 106.45049 6184 ft 240 kts 249°
2026-04-23 04:12 -6.10408 106.43548 6061 ft 234 kts 234°
2026-04-23 04:13 -6.11636 106.42545 5813 ft 233 kts 200°
2026-04-23 04:13 -6.13223 106.42321 5572 ft 231 kts 175°
2026-04-23 04:13 -6.14814 106.42539 5332 ft 230 kts 169°
2026-04-23 04:13 -6.16339 106.42993 5070 ft 228 kts 147°
2026-04-23 04:14 -6.17420 106.44109 4828 ft 223 kts 116°
2026-04-23 04:14 -6.17869 106.45584 4579 ft 221 kts 97°
2026-04-23 04:14 -6.18040 106.47116 4331 ft 221 kts 94°
2026-04-23 04:14 -6.18135 106.48649 4095 ft 219 kts 84°
2026-04-23 04:15 -6.17676 106.50087 3885 ft 216 kts 65°
2026-04-23 04:15 -6.17081 106.51477 3649 ft 217 kts 67°
2026-04-23 04:15 -6.15941 106.54194 3323 ft 213 kts 67°
2026-04-23 04:16 -6.15337 106.55667 2556 ft 236 kts 69°
2026-04-23 04:16 -6.14750 106.57194 2118 ft 230 kts 68°
2026-04-23 04:16 -6.14140 106.58724 1288 ft 240 kts 68°
2026-04-23 04:16 -6.13576 106.60239 896 ft 227 kts 69°
2026-04-23 04:17 -6.13053 106.61559 888 ft 194 kts 66°
2026-04-23 04:17 -6.12581 106.62852 477 ft 189 kts 67°
2026-04-23 04:17 -6.12038 106.64011 111 ft 176 kts 72°
2026-04-23 04:17 -6.11631 106.65065 41 ft 148 kts 66°
2026-04-23 04:18 -6.11303 106.65892 38 ft 107 kts 69°
2026-04-23 04:18 -6.11082 106.66442 39 ft 65 kts 69°